小惑星A/2019 C1

A/2019 C1

English version
Home page
Updated on July 9, 2019

---------------------------------------------------------------------

・ プロフィール

発見日 2019年2月5日
発見光度 17.75等
発見者 ATLAS-MLO (Mauna Loa)

・ 写真集

・ 軌道要素

Epoch 2020 Apr. 21.0 TT = JDT 2458960.5
T 2020 May 6.13292 TT                                   MPCW
q   6.5798757            (2000.0)            P               Q
z  +0.0011153      Peri.  319.23478     -0.92247387     -0.22316584
 +/-0.0000303      Node   212.39310     +0.18961743     -0.97269631
e   0.9926615      Incl.   36.01731     -0.33628440     +0.06370941
From 130 observations 2019 Jan. 14-May 1, mean residual 0".4.

・ 光度変化

        H = 9.0  G = 0.15

---------------------------------------------------------------------

軌道要素はM.P.E.C. 2019-J142に掲載されたものです。
光度グラフはComet for Windowsで作成したものです。

---------------------------------------------------------------------

Copyright(C) Seiichi Yoshida (comet@aerith.net). All rights reserved.